Time,TemperatureF,DewpointF,PressureIn,WindDirection,WindDirectionDegrees,WindSpeedMPH,WindSpeedGustMPH,Humidity,HourlyPrecipIn,Conditions,Clouds,dailyrainin,SoftwareType,DateUTC
2013-09-13 00:25:00,72.0,70.0,29.93,ESE,117,0.0,0.0,94,0.00,,,1.53,,2013-09-13 04:25:00,
2013-09-13 00:54:00,72.0,70.0,29.93,ESE,117,0.0,0.0,94,0.00,,,1.53,,2013-09-13 04:54:00,
2013-09-13 01:22:00,72.0,70.0,29.93,ESE,117,0.0,0.0,94,0.00,,,1.53,,2013-09-13 05:22:00,
2013-09-13 01:53:00,72.0,70.0,29.93,ESE,117,0.0,0.0,94,0.00,,,1.53,,2013-09-13 05:53:00,
2013-09-13 02:12:00,72.0,70.0,29.92,ESE,117,0.0,0.0,94,0.00,,,1.53,,2013-09-13 06:12:00,
2013-09-13 02:22:00,72.0,70.0,29.92,ESE,117,0.0,0.0,95,0.00,,,1.53,,2013-09-13 06:22:00,
2013-09-13 02:52:00,72.0,70.0,29.92,ESE,117,0.0,0.0,94,0.00,,,1.53,,2013-09-13 06:52:00,
2013-09-13 03:22:00,72.0,70.0,29.92,ESE,117,0.0,0.0,94,0.00,,,1.53,,2013-09-13 07:22:00,
2013-09-13 03:52:00,71.0,69.0,29.91,ESE,117,0.0,0.0,94,0.00,,,1.53,,2013-09-13 07:52:00,
2013-09-13 04:11:00,71.0,69.0,29.90,ESE,117,0.0,0.0,94,0.00,,,1.53,,2013-09-13 08:11:00,
2013-09-13 04:22:00,71.0,69.0,29.90,ESE,117,0.0,0.0,94,0.00,,,1.53,,2013-09-13 08:22:00,
2013-09-13 04:52:00,71.0,69.0,29.89,ESE,117,0.0,0.0,94,0.00,,,1.53,,2013-09-13 08:52:00,
2013-09-13 05:21:00,71.0,69.0,29.89,ESE,117,0.0,0.0,94,0.00,,,1.53,,2013-09-13 09:21:00,
2013-09-13 05:54:00,71.0,69.0,29.90,ESE,117,0.0,0.0,94,0.00,,,1.53,,2013-09-13 09:54:00,
2013-09-13 06:23:00,70.0,68.0,29.89,ESE,117,0.0,0.0,95,0.00,,,1.53,,2013-09-13 10:23:00,
2013-09-13 06:53:00,70.0,68.0,29.89,ESE,117,0.0,0.0,95,0.00,,,1.53,,2013-09-13 10:53:00,
2013-09-13 07:12:00,70.0,68.0,29.88,ESE,117,0.0,0.0,95,0.00,,,1.53,,2013-09-13 11:12:00,
2013-09-13 07:22:00,70.0,68.0,29.88,ESE,117,0.0,0.0,95,0.01,,,1.54,,2013-09-13 11:22:00,
2013-09-13 07:52:00,70.0,68.0,29.89,ESE,117,0.0,0.0,95,0.01,,,1.54,,2013-09-13 11:52:00,
2013-09-13 08:22:00,71.0,69.0,29.90,ESE,117,0.0,0.0,95,0.00,,,1.54,,2013-09-13 12:22:00,
2013-09-13 08:52:00,72.0,70.0,29.91,ESE,117,0.0,0.0,95,0.00,,,1.54,,2013-09-13 12:52:00,
2013-09-13 09:22:00,74.0,72.0,29.91,ESE,117,0.0,1.0,95,0.00,,,1.54,,2013-09-13 13:22:00,
2013-09-13 09:52:00,75.0,74.0,29.91,ESE,117,1.0,3.0,96,0.00,,,1.54,,2013-09-13 13:52:00,
2013-09-13 10:22:00,77.0,74.0,29.92,SSW,197,1.0,4.0,92,0.00,,,1.54,,2013-09-13 14:22:00,
2013-09-13 10:52:00,78.0,74.0,29.91,SSW,197,0.0,2.0,87,0.00,,,1.54,,2013-09-13 14:52:00,
2013-09-13 11:22:00,80.0,74.0,29.91,West,280,0.0,4.0,81,0.00,,,1.54,,2013-09-13 15:22:00,
2013-09-13 11:53:00,82.0,75.0,29.91,West,263,0.0,1.0,79,0.00,,,1.54,,2013-09-13 15:53:00,
2013-09-13 12:24:00,85.0,75.0,29.91,West,279,1.0,3.0,72,0.00,,,1.54,,2013-09-13 16:24:00,
2013-09-13 12:54:00,86.0,73.0,29.90,West,265,1.0,5.0,66,0.00,,,1.54,,2013-09-13 16:54:00,
2013-09-13 13:24:00,89.0,74.0,29.89,West,263,0.0,4.0,61,0.00,,,1.54,,2013-09-13 17:24:00,
2013-09-13 13:53:00,91.0,74.0,29.88,West,275,0.0,1.0,58,0.00,,,1.54,,2013-09-13 17:53:00,
2013-09-13 14:22:00,88.0,74.0,29.86,West,279,0.0,0.0,63,0.00,,,1.54,,2013-09-13 18:22:00,
2013-09-13 14:52:00,89.0,74.0,29.85,WSW,247,0.0,3.0,61,0.00,,,1.38,,2013-09-13 18:52:00,
2013-09-13 15:22:00,91.0,75.0,29.84,SSW,204,0.0,4.0,59,0.00,,,1.38,,2013-09-13 19:22:00,
2013-09-13 15:52:00,90.0,73.0,29.83,SW,218,0.0,4.0,58,0.00,,,1.33,,2013-09-13 19:52:00,
2013-09-13 16:22:00,93.0,74.0,29.81,SW,218,0.0,0.0,54,0.00,,,1.33,,2013-09-13 20:22:00,
2013-09-13 16:52:00,91.0,71.0,29.81,SW,223,0.0,2.0,52,0.00,,,1.33,,2013-09-13 20:52:00,
2013-09-13 17:22:00,92.0,73.0,29.80,SW,223,0.0,0.0,55,0.00,,,1.33,,2013-09-13 21:22:00,
2013-09-13 17:54:00,91.0,70.0,29.80,SW,221,0.0,2.0,51,0.00,,,1.33,,2013-09-13 21:54:00,
2013-09-13 18:24:00,89.0,71.0,29.80,West,265,1.0,4.0,55,0.00,,,1.33,,2013-09-13 22:24:00,
2013-09-13 18:53:00,87.0,73.0,29.81,West,266,0.0,1.0,63,0.00,,,1.33,,2013-09-13 22:53:00,
2013-09-13 19:22:00,85.0,72.0,29.81,West,266,0.0,0.0,66,0.00,,,1.33,,2013-09-13 23:22:00,
2013-09-13 19:53:00,83.0,73.0,29.82,West,266,0.0,1.0,73,0.00,,,0.89,,2013-09-13 23:53:00,
2013-09-13 20:22:00,82.0,72.0,29.83,West,266,0.0,0.0,73,0.00,,,0.89,,2013-09-14 00:22:00,
2013-09-13 20:52:00,81.0,72.0,29.84,West,266,0.0,0.0,75,0.00,,,0.01,,2013-09-14 00:52:00,
2013-09-13 21:12:00,81.0,73.0,29.85,West,266,0.0,0.0,76,0.00,,,0.01,,2013-09-14 01:12:00,
2013-09-13 21:22:00,80.0,72.0,29.85,West,266,0.0,1.0,76,0.00,,,0.01,,2013-09-14 01:22:00,
2013-09-13 21:42:00,80.0,72.0,29.86,West,266,0.0,2.0,77,0.00,,,0.01,,2013-09-14 01:42:00,
2013-09-13 21:52:00,80.0,72.0,29.86,West,266,0.0,0.0,78,0.00,,,0.01,,2013-09-14 01:52:00,
2013-09-13 22:22:00,79.0,72.0,29.87,West,266,0.0,1.0,80,0.00,,,0.01,,2013-09-14 02:22:00,
2013-09-13 22:42:00,79.0,73.0,29.87,West,266,0.0,0.0,81,0.00,,,0.01,,2013-09-14 02:42:00,
2013-09-13 22:52:00,79.0,72.0,29.87,West,266,0.0,0.0,80,0.00,,,0.01,,2013-09-14 02:52:00,
2013-09-13 23:22:00,79.0,73.0,29.86,West,263,1.0,3.0,81,0.00,,,0.01,,2013-09-14 03:22:00,
2013-09-13 23:55:00,79.0,73.0,29.86,South,191,0.0,5.0,82,0.00,,,0.01,,2013-09-14 03:55:00,